Time,TemperatureF,DewpointF,PressureIn,WindDirection,WindDirectionDegrees,WindSpeedMPH,WindSpeedGustMPH,Humidity,HourlyPrecipIn,Conditions,Clouds,dailyrainin,SoftwareType,DateUTC
2013-08-27 00:02:00,79.2,70.6,29.92,SSW,195,1.0,8.0,75,0.00,,,0.00,Wunderground v.1.15,2013-08-27 05:02:00,
2013-08-27 00:08:00,78.7,70.5,29.92,SSE,158,0.0,8.0,76,0.00,,,0.00,Wunderground v.1.15,2013-08-27 05:08:00,
2013-08-27 00:14:00,78.3,70.1,29.92,SSE,150,0.0,8.0,76,0.00,,,0.00,Wunderground v.1.15,2013-08-27 05:14:00,
2013-08-27 00:20:00,78.0,70.2,29.92,SSE,156,0.0,8.0,77,0.00,,,0.00,Wunderground v.1.15,2013-08-27 05:20:00,
2013-08-27 00:26:00,77.7,69.9,29.92,SE,139,0.0,8.0,77,0.00,,,0.00,Wunderground v.1.15,2013-08-27 05:26:00,
2013-08-27 00:32:00,77.5,70.1,29.92,SE,141,1.0,8.0,78,0.00,,,0.00,Wunderground v.1.15,2013-08-27 05:32:00,
2013-08-27 00:38:00,77.4,70.0,29.92,SW,223,0.0,8.0,78,0.00,,,0.00,Wunderground v.1.15,2013-08-27 05:38:00,
2013-08-27 00:44:00,77.3,69.9,29.92,SE,139,0.0,8.0,78,0.00,,,0.00,Wunderground v.1.15,2013-08-27 05:44:00,
2013-08-27 00:50:00,77.4,70.0,29.92,SSE,155,1.0,1.0,78,0.00,,,0.00,Wunderground v.1.15,2013-08-27 05:50:00,
2013-08-27 00:56:00,77.5,69.7,29.92,SSE,162,1.0,8.0,77,0.00,,,0.00,Wunderground v.1.15,2013-08-27 05:56:00,
2013-08-27 01:02:00,77.7,69.9,29.92,South,190,2.0,2.0,77,0.00,,,0.00,Wunderground v.1.15,2013-08-27 06:02:00,
2013-08-27 01:08:00,77.7,69.9,29.92,SSE,153,1.0,8.0,77,0.00,,,0.00,Wunderground v.1.15,2013-08-27 06:08:00,
2013-08-27 01:14:00,77.6,69.8,29.92,SSE,155,1.0,8.0,77,0.00,,,0.00,Wunderground v.1.15,2013-08-27 06:14:00,
2013-08-27 01:20:00,77.4,69.6,29.91,South,172,1.0,8.0,77,0.00,,,0.00,Wunderground v.1.15,2013-08-27 06:20:00,
2013-08-27 01:26:00,77.2,69.8,29.91,SSE,155,2.0,8.0,78,0.00,,,0.00,Wunderground v.1.15,2013-08-27 06:26:00,
2013-08-27 01:32:00,77.1,69.7,29.91,SW,232,2.0,8.0,78,0.00,,,0.00,Wunderground v.1.15,2013-08-27 06:32:00,
2013-08-27 01:38:00,77.1,69.7,29.91,South,171,2.0,8.0,78,0.00,,,0.00,Wunderground v.1.15,2013-08-27 06:38:00,
2013-08-27 01:44:00,77.1,69.3,29.90,SW,222,1.0,8.0,77,0.00,,,0.00,Wunderground v.1.15,2013-08-27 06:44:00,
2013-08-27 01:50:00,77.1,69.3,29.90,SW,233,2.0,8.0,77,0.00,,,0.00,Wunderground v.1.15,2013-08-27 06:50:00,
2013-08-27 01:56:00,77.1,69.3,29.90,SE,146,2.0,8.0,77,0.00,,,0.00,Wunderground v.1.15,2013-08-27 06:56:00,
2013-08-27 02:02:00,77.0,69.2,29.90,SSE,165,2.0,8.0,77,0.00,,,0.00,Wunderground v.1.15,2013-08-27 07:02:00,
2013-08-27 02:08:00,76.9,69.1,29.90,SSE,150,2.0,8.0,77,0.00,,,0.00,Wunderground v.1.15,2013-08-27 07:08:00,
2013-08-27 02:14:00,76.8,69.0,29.90,South,177,3.0,8.0,77,0.00,,,0.00,Wunderground v.1.15,2013-08-27 07:14:00,
2013-08-27 02:20:00,76.7,68.9,29.90,SW,225,3.0,8.0,77,0.00,,,0.00,Wunderground v.1.15,2013-08-27 07:20:00,
2013-08-27 02:26:00,76.6,69.2,29.90,SSE,165,2.0,8.0,78,0.00,,,0.00,Wunderground v.1.15,2013-08-27 07:26:00,
2013-08-27 02:32:00,76.5,69.1,29.89,South,184,2.0,8.0,78,0.00,,,0.00,Wunderground v.1.15,2013-08-27 07:32:00,
2013-08-27 02:38:00,76.3,68.9,29.90,South,170,2.0,8.0,78,0.00,,,0.00,Wunderground v.1.15,2013-08-27 07:38:00,
2013-08-27 02:44:00,76.1,69.1,29.89,SW,226,1.0,8.0,79,0.00,,,0.00,Wunderground v.1.15,2013-08-27 07:44:00,
2013-08-27 02:50:00,75.8,68.8,29.89,SSE,149,1.0,8.0,79,0.00,,,0.00,Wunderground v.1.15,2013-08-27 07:50:00,
2013-08-27 02:56:00,75.6,69.0,29.89,SW,218,2.0,8.0,80,0.00,,,0.00,Wunderground v.1.15,2013-08-27 07:56:00,
2013-08-27 03:02:00,75.5,68.9,29.89,South,190,2.0,8.0,80,0.00,,,0.00,Wunderground v.1.15,2013-08-27 08:02:00,
2013-08-27 03:08:00,75.4,68.8,29.88,SSE,152,2.0,8.0,80,0.00,,,0.00,Wunderground v.1.15,2013-08-27 08:08:00,
2013-08-27 03:14:00,75.3,69.1,29.88,SSW,207,2.0,8.0,81,0.00,,,0.00,Wunderground v.1.15,2013-08-27 08:14:00,
2013-08-27 03:20:00,75.1,68.9,29.88,SSW,204,1.0,1.0,81,0.00,,,0.00,Wunderground v.1.15,2013-08-27 08:20:00,
2013-08-27 03:26:00,75.0,68.8,29.88,SSW,198,1.0,8.0,81,0.00,,,0.00,Wunderground v.1.15,2013-08-27 08:26:00,
2013-08-27 03:32:00,74.9,69.0,29.88,South,184,1.0,8.0,82,0.00,,,0.00,Wunderground v.1.15,2013-08-27 08:32:00,
2013-08-27 03:38:00,74.9,69.0,29.88,South,184,0.0,8.0,82,0.00,,,0.00,Wunderground v.1.15,2013-08-27 08:38:00,
2013-08-27 03:44:00,74.8,68.9,29.88,South,190,1.0,8.0,82,0.00,,,0.00,Wunderground v.1.15,2013-08-27 08:44:00,
2013-08-27 03:50:00,74.7,68.8,29.88,SSE,166,0.0,8.0,82,0.00,,,0.00,Wunderground v.1.15,2013-08-27 08:50:00,
2013-08-27 03:56:00,74.7,68.8,29.88,WSW,245,1.0,8.0,82,0.00,,,0.00,Wunderground v.1.15,2013-08-27 08:56:00,
2013-08-27 04:02:00,74.7,69.2,29.88,SE,129,2.0,8.0,83,0.00,,,0.00,Wunderground v.1.15,2013-08-27 09:02:00,
2013-08-27 04:08:00,74.6,69.1,29.88,SSE,167,1.0,8.0,83,0.00,,,0.00,Wunderground v.1.15,2013-08-27 09:08:00,
2013-08-27 04:14:00,74.4,68.9,29.88,SSE,160,1.0,8.0,83,0.00,,,0.00,Wunderground v.1.15,2013-08-27 09:14:00,
2013-08-27 04:20:00,74.3,69.1,29.88,SSE,148,1.0,1.0,84,0.00,,,0.00,Wunderground v.1.15,2013-08-27 09:20:00,
2013-08-27 04:26:00,74.1,69.0,29.87,SSE,152,0.0,8.0,84,0.00,,,0.00,Wunderground v.1.15,2013-08-27 09:26:00,
2013-08-27 04:32:00,74.0,68.9,29.88,WSW,239,0.0,8.0,84,0.00,,,0.00,Wunderground v.1.15,2013-08-27 09:32:00,
2013-08-27 04:38:00,74.0,69.2,29.88,SSE,167,0.0,8.0,85,0.00,,,0.00,Wunderground v.1.15,2013-08-27 09:38:00,
2013-08-27 04:44:00,73.8,69.0,29.87,SE,139,0.0,8.0,85,0.00,,,0.00,Wunderground v.1.15,2013-08-27 09:44:00,
2013-08-27 04:50:00,73.9,69.1,29.87,SSE,155,1.0,8.0,85,0.00,,,0.00,Wunderground v.1.15,2013-08-27 09:50:00,
2013-08-27 04:56:00,73.9,69.1,29.87,South,187,1.0,8.0,85,0.00,,,0.00,Wunderground v.1.15,2013-08-27 09:56:00,
2013-08-27 05:02:00,74.0,69.2,29.87,SE,133,0.0,8.0,85,0.00,,,0.00,Wunderground v.1.15,2013-08-27 10:02:00,
2013-08-27 05:08:00,74.0,69.2,29.87,South,179,0.0,8.0,85,0.00,,,0.00,Wunderground v.1.15,2013-08-27 10:08:00,
2013-08-27 05:14:00,74.0,69.2,29.87,SSE,153,0.0,8.0,85,0.00,,,0.00,Wunderground v.1.15,2013-08-27 10:14:00,
2013-08-27 05:20:00,73.9,69.1,29.87,SE,139,0.0,8.0,85,0.00,,,0.00,Wunderground v.1.15,2013-08-27 10:20:00,
2013-08-27 05:26:00,73.5,69.1,29.87,SE,128,0.0,8.0,86,0.00,,,0.00,Wunderground v.1.15,2013-08-27 10:26:00,
2013-08-27 05:32:00,73.3,68.9,29.88,SE,143,1.0,8.0,86,0.00,,,0.00,Wunderground v.1.15,2013-08-27 10:32:00,
2013-08-27 05:38:00,73.1,69.0,29.88,SE,129,1.0,8.0,87,0.00,,,0.00,Wunderground v.1.15,2013-08-27 10:38:00,
2013-08-27 05:44:00,72.8,68.7,29.88,SE,132,0.0,8.0,87,0.00,,,0.00,Wunderground v.1.15,2013-08-27 10:44:00,
2013-08-27 05:50:00,72.6,68.8,29.88,SE,129,0.0,8.0,88,0.00,,,0.00,Wunderground v.1.15,2013-08-27 10:50:00,
2013-08-27 05:56:00,72.6,68.8,29.88,SE,127,1.0,8.0,88,0.00,,,0.00,Wunderground v.1.15,2013-08-27 10:56:00,
2013-08-27 06:02:00,72.5,68.7,29.88,SE,136,1.0,8.0,88,0.00,,,0.00,Wunderground v.1.15,2013-08-27 11:02:00,
2013-08-27 06:08:00,72.5,68.7,29.88,SE,128,1.0,8.0,88,0.00,,,0.00,Wunderground v.1.15,2013-08-27 11:08:00,
2013-08-27 06:14:00,72.4,68.6,29.89,SE,137,1.0,8.0,88,0.00,,,0.00,Wunderground v.1.15,2013-08-27 11:14:00,
2013-08-27 06:20:00,72.5,68.7,29.89,SE,137,1.0,8.0,88,0.00,,,0.00,Wunderground v.1.15,2013-08-27 11:20:00,
2013-08-27 06:26:00,72.4,68.6,29.89,SE,135,1.0,8.0,88,0.00,,,0.00,Wunderground v.1.15,2013-08-27 11:26:00,
2013-08-27 06:32:00,72.5,68.7,29.89,SE,136,0.0,8.0,88,0.00,,,0.00,Wunderground v.1.15,2013-08-27 11:32:00,
2013-08-27 06:38:00,72.6,68.8,29.89,SE,142,0.0,8.0,88,0.00,,,0.00,Wunderground v.1.15,2013-08-27 11:38:00,
2013-08-27 06:44:00,72.5,68.7,29.89,SE,142,1.0,8.0,88,0.00,,,0.00,Wunderground v.1.15,2013-08-27 11:44:00,
2013-08-27 06:50:00,72.4,68.6,29.89,SE,137,1.0,1.0,88,0.00,,,0.00,Wunderground v.1.15,2013-08-27 11:50:00,
2013-08-27 06:56:00,72.4,68.6,29.89,SE,129,1.0,8.0,88,0.00,,,0.00,Wunderground v.1.15,2013-08-27 11:56:00,
2013-08-27 07:02:00,72.4,69.0,29.89,SE,141,1.0,8.0,89,0.00,,,0.00,Wunderground v.1.15,2013-08-27 12:02:00,
2013-08-27 07:08:00,72.5,69.1,29.90,SSE,150,1.0,8.0,89,0.00,,,0.00,Wunderground v.1.15,2013-08-27 12:08:00,
2013-08-27 07:14:00,72.6,69.2,29.90,SE,139,1.0,8.0,89,0.00,,,0.00,Wunderground v.1.15,2013-08-27 12:14:00,
2013-08-27 07:20:00,72.7,68.9,29.89,SE,143,1.0,8.0,88,0.00,,,0.00,Wunderground v.1.15,2013-08-27 12:20:00,
2013-08-27 07:26:00,72.9,69.1,29.89,SE,130,1.0,8.0,88,0.00,,,0.00,Wunderground v.1.15,2013-08-27 12:26:00,
2013-08-27 07:32:00,73.4,69.6,29.89,SSE,158,2.0,8.0,88,0.00,,,0.00,Wunderground v.1.15,2013-08-27 12:32:00,
2013-08-27 07:38:00,73.8,69.7,29.89,SE,146,2.0,8.0,87,0.00,,,0.00,Wunderground v.1.15,2013-08-27 12:38:00,
2013-08-27 07:44:00,74.2,69.7,29.90,SSE,155,2.0,8.0,86,0.00,,,0.00,Wunderground v.1.15,2013-08-27 12:44:00,
2013-08-27 07:50:00,74.7,69.9,29.90,SE,146,1.0,8.0,85,0.00,,,0.00,Wunderground v.1.15,2013-08-27 12:50:00,
2013-08-27 07:56:00,75.0,70.2,29.89,SSE,155,2.0,8.0,85,0.00,,,0.00,Wunderground v.1.15,2013-08-27 12:56:00,
2013-08-27 08:02:00,75.3,70.5,29.89,SSE,153,2.0,8.0,85,0.00,,,0.00,Wunderground v.1.15,2013-08-27 13:02:00,
2013-08-27 08:08:00,75.6,70.8,29.89,SSE,162,2.0,8.0,85,0.00,,,0.00,Wunderground v.1.15,2013-08-27 13:08:00,
2013-08-27 08:14:00,76.1,70.9,29.88,SSE,160,2.0,8.0,84,0.00,,,0.00,Wunderground v.1.15,2013-08-27 13:14:00,
2013-08-27 08:20:00,76.6,71.0,29.88,SSW,193,2.0,2.0,83,0.00,,,0.00,Wunderground v.1.15,2013-08-27 13:20:00,
2013-08-27 08:26:00,76.9,70.6,29.88,South,173,2.0,8.0,81,0.00,,,0.00,Wunderground v.1.15,2013-08-27 13:26:00,
2013-08-27 08:32:00,77.3,71.0,29.88,SW,236,2.0,8.0,81,0.00,,,0.00,Wunderground v.1.15,2013-08-27 13:32:00,
2013-08-27 08:38:00,77.7,71.0,29.88,SSW,195,2.0,8.0,80,0.00,,,0.00,Wunderground v.1.15,2013-08-27 13:38:00,
2013-08-27 08:44:00,78.1,71.1,29.88,WSW,242,3.0,8.0,79,0.00,,,0.00,Wunderground v.1.15,2013-08-27 13:44:00,
2013-08-27 08:50:00,78.5,71.1,29.88,SE,131,3.0,8.0,78,0.00,,,0.00,Wunderground v.1.15,2013-08-27 13:50:00,
2013-08-27 08:56:00,79.1,71.3,29.87,SE,146,4.0,8.0,77,0.00,,,0.00,Wunderground v.1.15,2013-08-27 13:56:00,
2013-08-27 09:02:00,79.7,71.1,29.87,West,269,4.0,8.0,75,0.00,,,0.00,Wunderground v.1.15,2013-08-27 14:02:00,
2013-08-27 09:08:00,80.3,70.9,29.87,WSW,248,3.0,9.0,73,0.00,,,0.00,Wunderground v.1.15,2013-08-27 14:08:00,
2013-08-27 09:14:00,80.7,71.2,29.87,SW,214,4.0,8.0,73,0.00,,,0.00,Wunderground v.1.15,2013-08-27 14:14:00,
2013-08-27 09:20:00,81.0,70.7,29.87,West,260,4.0,8.0,71,0.00,,,0.00,Wunderground v.1.15,2013-08-27 14:20:00,
2013-08-27 09:26:00,81.4,70.7,29.87,WSW,238,4.0,8.0,70,0.00,,,0.00,Wunderground v.1.15,2013-08-27 14:26:00,
2013-08-27 09:32:00,81.7,71.0,29.87,SSW,204,4.0,5.0,70,0.00,,,0.00,Wunderground v.1.15,2013-08-27 14:32:00,
2013-08-27 09:38:00,82.1,70.9,29.87,WSW,241,5.0,8.0,69,0.00,,,0.00,Wunderground v.1.15,2013-08-27 14:38:00,
2013-08-27 09:44:00,82.4,70.8,29.87,WSW,253,5.0,8.0,68,0.00,,,0.00,Wunderground v.1.15,2013-08-27 14:44:00,
2013-08-27 09:50:00,82.5,70.9,29.86,SW,217,5.0,8.0,68,0.00,,,0.00,Wunderground v.1.15,2013-08-27 14:50:00,
2013-08-27 09:56:00,82.6,71.0,29.86,West,264,5.0,12.0,68,0.00,,,0.00,Wunderground v.1.15,2013-08-27 14:56:00,
2013-08-27 10:02:00,82.9,71.3,29.86,SW,222,5.0,8.0,68,0.00,,,0.00,Wunderground v.1.15,2013-08-27 15:02:00,
2013-08-27 10:08:00,83.0,71.3,29.86,West,262,5.0,8.0,68,0.00,,,0.00,Wunderground v.1.15,2013-08-27 15:08:00,
2013-08-27 10:14:00,83.2,71.1,29.86,WNW,284,5.0,8.0,67,0.00,,,0.00,Wunderground v.1.15,2013-08-27 15:14:00,
2013-08-27 10:20:00,83.5,71.4,29.86,SW,221,4.0,4.0,67,0.00,,,0.00,Wunderground v.1.15,2013-08-27 15:20:00,
2013-08-27 10:26:00,83.8,71.7,29.86,SW,233,4.0,8.0,67,0.00,,,0.00,Wunderground v.1.15,2013-08-27 15:26:00,
2013-08-27 10:32:00,84.1,72.0,29.86,SSE,163,4.0,8.0,67,0.00,,,0.00,Wunderground v.1.15,2013-08-27 15:32:00,
2013-08-27 10:38:00,84.2,71.6,29.86,WSW,256,5.0,8.0,66,0.00,,,0.00,Wunderground v.1.15,2013-08-27 15:38:00,
2013-08-27 10:44:00,84.3,71.7,29.86,South,187,6.0,10.0,66,0.00,,,0.00,Wunderground v.1.15,2013-08-27 15:44:00,
2013-08-27 10:50:00,84.5,71.9,29.86,WNW,298,6.0,8.0,66,0.00,,,0.00,Wunderground v.1.15,2013-08-27 15:50:00,
2013-08-27 10:56:00,85.0,72.4,29.86,West,267,5.0,8.0,66,0.00,,,0.00,Wunderground v.1.15,2013-08-27 15:56:00,
2013-08-27 11:02:00,85.1,71.5,29.86,SW,224,5.0,10.0,64,0.00,,,0.00,Wunderground v.1.15,2013-08-27 16:02:00,
2013-08-27 11:08:00,85.2,71.6,29.86,SSW,195,6.0,10.0,64,0.00,,,0.00,Wunderground v.1.15,2013-08-27 16:08:00,
2013-08-27 11:14:00,85.4,71.8,29.86,West,276,5.0,8.0,64,0.00,,,0.00,Wunderground v.1.15,2013-08-27 16:14:00,
2013-08-27 11:20:00,85.8,71.7,29.86,WSW,245,6.0,6.0,63,0.00,,,0.00,Wunderground v.1.15,2013-08-27 16:20:00,
2013-08-27 11:26:00,86.1,72.0,29.86,WSW,245,5.0,10.0,63,0.00,,,0.00,Wunderground v.1.15,2013-08-27 16:26:00,
2013-08-27 11:32:00,86.5,72.4,29.86,WNW,284,5.0,6.0,63,0.00,,,0.00,Wunderground v.1.15,2013-08-27 16:32:00,
2013-08-27 11:38:00,86.6,72.0,29.86,SW,222,6.0,8.0,62,0.00,,,0.00,Wunderground v.1.15,2013-08-27 16:38:00,
2013-08-27 11:44:00,86.8,72.2,29.86,SSW,210,6.0,8.0,62,0.00,,,0.00,Wunderground v.1.15,2013-08-27 16:44:00,
2013-08-27 11:50:00,87.3,71.7,29.86,SSW,211,5.0,8.0,60,0.00,,,0.00,Wunderground v.1.15,2013-08-27 16:50:00,
2013-08-27 11:56:00,87.7,72.6,29.85,WSW,242,5.0,9.0,61,0.00,,,0.00,Wunderground v.1.15,2013-08-27 16:56:00,
2013-08-27 12:02:00,88.1,72.0,29.85,WSW,250,5.0,8.0,59,0.00,,,0.00,Wunderground v.1.15,2013-08-27 17:02:00,
2013-08-27 12:08:00,88.1,72.0,29.85,SW,226,6.0,10.0,59,0.00,,,0.00,Wunderground v.1.15,2013-08-27 17:08:00,
2013-08-27 12:14:00,88.1,73.0,29.85,SW,227,6.0,8.0,61,0.00,,,0.00,Wunderground v.1.15,2013-08-27 17:14:00,
2013-08-27 12:20:00,88.1,72.0,29.85,SSE,149,6.0,6.0,59,0.00,,,0.00,Wunderground v.1.15,2013-08-27 17:20:00,
2013-08-27 12:26:00,88.4,72.2,29.85,WSW,250,6.0,8.0,59,0.00,,,0.00,Wunderground v.1.15,2013-08-27 17:26:00,
2013-08-27 12:32:00,88.9,72.2,29.85,West,273,5.0,8.0,58,0.00,,,0.00,Wunderground v.1.15,2013-08-27 17:32:00,
2013-08-27 12:38:00,89.2,71.5,29.85,SW,228,5.0,8.0,56,0.00,,,0.00,Wunderground v.1.15,2013-08-27 17:38:00,
2013-08-27 12:44:00,89.1,71.9,29.84,SW,235,7.0,8.0,57,0.00,,,0.00,Wunderground v.1.15,2013-08-27 17:44:00,
2013-08-27 12:50:00,89.4,72.7,29.84,NW,308,6.0,6.0,58,0.00,,,0.00,Wunderground v.1.15,2013-08-27 17:50:00,
2013-08-27 12:56:00,89.5,72.3,29.83,SSE,158,6.0,9.0,57,0.00,,,0.00,Wunderground v.1.15,2013-08-27 17:56:00,
2013-08-27 13:02:00,90.0,72.7,29.83,WNW,291,5.0,8.0,57,0.00,,,0.00,Wunderground v.1.15,2013-08-27 18:02:00,
2013-08-27 13:08:00,90.4,72.0,29.83,SW,222,6.0,8.0,55,0.00,,,0.00,Wunderground v.1.15,2013-08-27 18:08:00,
2013-08-27 13:14:00,90.5,72.7,29.83,SW,232,6.0,8.0,56,0.00,,,0.00,Wunderground v.1.15,2013-08-27 18:14:00,
2013-08-27 13:20:00,90.8,72.4,29.83,WSW,242,5.0,8.0,55,0.00,,,0.00,Wunderground v.1.15,2013-08-27 18:20:00,
2013-08-27 13:26:00,90.8,71.9,29.83,WSW,253,6.0,8.0,54,0.00,,,0.00,Wunderground v.1.15,2013-08-27 18:26:00,
2013-08-27 13:32:00,91.1,72.1,29.82,SSW,201,6.0,8.0,54,0.00,,,0.00,Wunderground v.1.15,2013-08-27 18:32:00,
2013-08-27 13:38:00,91.5,72.5,29.82,WSW,247,5.0,8.0,54,0.00,,,0.00,Wunderground v.1.15,2013-08-27 18:38:00,
2013-08-27 13:44:00,91.5,73.1,29.83,South,174,5.0,8.0,55,0.00,,,0.00,Wunderground v.1.15,2013-08-27 18:44:00,
2013-08-27 13:50:00,92.3,72.7,29.82,WSW,242,4.0,4.0,53,0.00,,,0.00,Wunderground v.1.15,2013-08-27 18:50:00,
2013-08-27 13:56:00,92.1,71.9,29.82,West,264,4.0,8.0,52,0.00,,,0.00,Wunderground v.1.15,2013-08-27 18:56:00,
2013-08-27 14:02:00,92.1,71.9,29.82,WSW,239,6.0,9.0,52,0.00,,,0.00,Wunderground v.1.15,2013-08-27 19:02:00,
2013-08-27 14:08:00,92.2,72.6,29.82,SSW,208,6.0,9.0,53,0.00,,,0.00,Wunderground v.1.15,2013-08-27 19:08:00,
2013-08-27 14:14:00,92.3,72.1,29.82,SSW,210,6.0,8.0,52,0.00,,,0.00,Wunderground v.1.15,2013-08-27 19:14:00,
2013-08-27 14:20:00,92.8,72.0,29.82,West,266,5.0,8.0,51,0.00,,,0.00,Wunderground v.1.15,2013-08-27 19:20:00,
2013-08-27 14:26:00,93.0,72.2,29.82,West,259,5.0,8.0,51,0.00,,,0.00,Wunderground v.1.15,2013-08-27 19:26:00,
2013-08-27 14:32:00,92.7,71.9,29.82,WSW,243,6.0,8.0,51,0.00,,,0.00,Wunderground v.1.15,2013-08-27 19:32:00,
2013-08-27 14:38:00,92.7,71.3,29.81,WSW,248,7.0,8.0,50,0.00,,,0.00,Wunderground v.1.15,2013-08-27 19:38:00,
2013-08-27 14:44:00,92.7,71.9,29.81,WNW,286,7.0,11.0,51,0.00,,,0.00,Wunderground v.1.15,2013-08-27 19:44:00,
2013-08-27 14:50:00,93.2,72.4,29.81,SW,218,7.0,7.0,51,0.00,,,0.00,Wunderground v.1.15,2013-08-27 19:50:00,
2013-08-27 14:56:00,93.5,72.1,29.81,WSW,242,6.0,8.0,50,0.00,,,0.00,Wunderground v.1.15,2013-08-27 19:56:00,
2013-08-27 15:02:00,93.5,72.1,29.81,SW,215,6.0,8.0,50,0.00,,,0.00,Wunderground v.1.15,2013-08-27 20:02:00,
2013-08-27 15:08:00,94.0,72.5,29.81,West,259,5.0,8.0,50,0.00,,,0.00,Wunderground v.1.15,2013-08-27 20:08:00,
2013-08-27 15:14:00,94.0,73.1,29.81,SSE,147,5.0,10.0,51,0.00,,,0.00,Wunderground v.1.15,2013-08-27 20:14:00,
2013-08-27 15:20:00,94.7,73.2,29.80,SSW,208,4.0,4.0,50,0.00,,,0.00,Wunderground v.1.15,2013-08-27 20:20:00,
2013-08-27 15:26:00,94.6,72.5,29.80,WSW,256,4.0,8.0,49,0.00,,,0.00,Wunderground v.1.15,2013-08-27 20:26:00,
2013-08-27 15:32:00,94.5,72.4,29.80,West,262,5.0,8.0,49,0.00,,,0.00,Wunderground v.1.15,2013-08-27 20:32:00,
2013-08-27 15:38:00,94.3,72.8,29.80,SW,226,5.0,11.0,50,0.00,,,0.00,Wunderground v.1.15,2013-08-27 20:38:00,
2013-08-27 15:44:00,94.9,73.4,29.80,SSE,153,5.0,8.0,50,0.00,,,0.00,Wunderground v.1.15,2013-08-27 20:44:00,
2013-08-27 15:50:00,94.5,72.4,29.80,SSW,208,5.0,8.0,49,0.00,,,0.00,Wunderground v.1.15,2013-08-27 20:50:00,
2013-08-27 15:56:00,94.4,71.7,29.80,SSW,206,7.0,9.0,48,0.00,,,0.00,Wunderground v.1.15,2013-08-27 20:56:00,
2013-08-27 16:02:00,94.6,72.5,29.80,West,277,7.0,11.0,49,0.00,,,0.00,Wunderground v.1.15,2013-08-27 21:02:00,
2013-08-27 16:08:00,94.5,72.4,29.80,SW,228,6.0,11.0,49,0.00,,,0.00,Wunderground v.1.15,2013-08-27 21:08:00,
2013-08-27 16:14:00,94.6,72.5,29.80,West,281,6.0,8.0,49,0.00,,,0.00,Wunderground v.1.15,2013-08-27 21:14:00,
2013-08-27 16:20:00,94.4,72.3,29.80,WSW,239,6.0,8.0,49,0.00,,,0.00,Wunderground v.1.15,2013-08-27 21:20:00,
2013-08-27 16:26:00,94.7,72.6,29.80,WSW,252,6.0,8.0,49,0.00,,,0.00,Wunderground v.1.15,2013-08-27 21:26:00,
2013-08-27 16:32:00,94.4,73.5,29.80,West,267,6.0,8.0,51,0.00,,,0.00,Wunderground v.1.15,2013-08-27 21:32:00,
2013-08-27 16:38:00,94.7,72.6,29.80,West,259,6.0,8.0,49,0.00,,,0.00,Wunderground v.1.15,2013-08-27 21:38:00,
2013-08-27 16:44:00,94.5,72.4,29.80,SW,232,6.0,10.0,49,0.00,,,0.00,Wunderground v.1.15,2013-08-27 21:44:00,
2013-08-27 16:50:00,94.7,73.2,29.80,SW,214,6.0,6.0,50,0.00,,,0.00,Wunderground v.1.15,2013-08-27 21:50:00,
2013-08-27 16:56:00,95.6,72.8,29.80,WSW,240,3.0,8.0,48,0.00,,,0.00,Wunderground v.1.15,2013-08-27 21:56:00,
2013-08-27 17:02:00,95.0,72.8,29.79,SW,218,5.0,8.0,49,0.00,,,0.00,Wunderground v.1.15,2013-08-27 22:02:00,
2013-08-27 17:08:00,94.9,73.4,29.79,WSW,248,6.0,9.0,50,0.00,,,0.00,Wunderground v.1.15,2013-08-27 22:08:00,
2013-08-27 17:14:00,94.8,73.3,29.80,SW,218,5.0,8.0,50,0.00,,,0.00,Wunderground v.1.15,2013-08-27 22:14:00,
2013-08-27 17:20:00,94.7,72.6,29.80,WSW,238,5.0,5.0,49,0.00,,,0.00,Wunderground v.1.15,2013-08-27 22:20:00,
2013-08-27 17:26:00,95.1,73.5,29.80,West,264,4.0,8.0,50,0.00,,,0.00,Wunderground v.1.15,2013-08-27 22:26:00,
2013-08-27 17:32:00,94.9,73.4,29.80,SW,229,4.0,8.0,50,0.00,,,0.00,Wunderground v.1.15,2013-08-27 22:32:00,
2013-08-27 17:38:00,94.7,73.2,29.80,WSW,256,5.0,8.0,50,0.00,,,0.00,Wunderground v.1.15,2013-08-27 22:38:00,
2013-08-27 17:44:00,94.8,73.8,29.79,SW,225,4.0,9.0,51,0.00,,,0.00,Wunderground v.1.15,2013-08-27 22:44:00,
2013-08-27 17:50:00,94.7,73.8,29.79,SW,229,4.0,4.0,51,0.00,,,0.00,Wunderground v.1.15,2013-08-27 22:50:00,
2013-08-27 17:56:00,94.5,74.2,29.79,SW,225,4.0,8.0,52,0.00,,,0.00,Wunderground v.1.15,2013-08-27 22:56:00,
2013-08-27 18:02:00,94.4,74.1,29.80,West,263,4.0,8.0,52,0.00,,,0.00,Wunderground v.1.15,2013-08-27 23:02:00,
2013-08-27 18:08:00,94.2,73.9,29.80,West,262,5.0,8.0,52,0.00,,,0.00,Wunderground v.1.15,2013-08-27 23:08:00,
2013-08-27 18:14:00,94.0,74.3,29.79,WSW,245,5.0,8.0,53,0.00,,,0.00,Wunderground v.1.15,2013-08-27 23:14:00,
2013-08-27 18:20:00,93.9,74.2,29.79,WSW,242,4.0,8.0,53,0.00,,,0.00,Wunderground v.1.15,2013-08-27 23:20:00,
2013-08-27 18:26:00,93.7,74.0,29.80,SW,231,4.0,8.0,53,0.00,,,0.00,Wunderground v.1.15,2013-08-27 23:26:00,
2013-08-27 18:32:00,93.4,74.3,29.79,WSW,253,5.0,8.0,54,0.00,,,0.00,Wunderground v.1.15,2013-08-27 23:32:00,
2013-08-27 18:38:00,93.2,74.1,29.79,West,259,4.0,8.0,54,0.00,,,0.00,Wunderground v.1.15,2013-08-27 23:38:00,
2013-08-27 18:44:00,93.0,73.9,29.79,SSW,203,4.0,8.0,54,0.00,,,0.00,Wunderground v.1.15,2013-08-27 23:44:00,
2013-08-27 18:50:00,92.8,74.3,29.79,SW,229,3.0,3.0,55,0.00,,,0.00,Wunderground v.1.15,2013-08-27 23:50:00,
2013-08-27 18:56:00,92.8,74.3,29.79,WSW,245,2.0,8.0,55,0.00,,,0.00,Wunderground v.1.15,2013-08-27 23:56:00,
2013-08-27 19:02:00,92.3,74.3,29.79,West,259,3.0,8.0,56,0.00,,,0.00,Wunderground v.1.15,2013-08-28 00:02:00,
2013-08-27 19:08:00,91.8,73.9,29.79,SW,226,4.0,8.0,56,0.00,,,0.00,Wunderground v.1.15,2013-08-28 00:08:00,
2013-08-27 19:14:00,91.5,73.6,29.79,WSW,257,4.0,8.0,56,0.00,,,0.00,Wunderground v.1.15,2013-08-28 00:14:00,
2013-08-27 19:20:00,91.0,73.7,29.79,WSW,243,4.0,8.0,57,0.00,,,0.00,Wunderground v.1.15,2013-08-28 00:20:00,
2013-08-27 19:26:00,90.4,73.6,29.80,SW,219,3.0,8.0,58,0.00,,,0.00,Wunderground v.1.15,2013-08-28 00:26:00,
2013-08-27 19:32:00,90.0,73.7,29.79,WSW,243,3.0,8.0,59,0.00,,,0.00,Wunderground v.1.15,2013-08-28 00:32:00,
2013-08-27 19:38:00,89.6,73.4,29.80,West,262,2.0,8.0,59,0.00,,,0.00,Wunderground v.1.15,2013-08-28 00:38:00,
2013-08-27 19:44:00,89.1,73.9,29.80,SW,235,1.0,8.0,61,0.00,,,0.00,Wunderground v.1.15,2013-08-28 00:44:00,
2013-08-27 19:50:00,88.6,73.4,29.80,SSW,205,2.0,2.0,61,0.00,,,0.00,Wunderground v.1.15,2013-08-28 00:50:00,
2013-08-27 19:56:00,88.3,73.1,29.80,SW,215,3.0,8.0,61,0.00,,,0.00,Wunderground v.1.15,2013-08-28 00:56:00,
2013-08-27 20:02:00,88.1,73.0,29.80,South,179,3.0,8.0,61,0.00,,,0.00,Wunderground v.1.15,2013-08-28 01:02:00,
2013-08-27 20:08:00,87.7,73.1,29.80,SW,236,3.0,8.0,62,0.00,,,0.00,Wunderground v.1.15,2013-08-28 01:08:00,
2013-08-27 20:14:00,87.2,73.1,29.80,SW,232,2.0,8.0,63,0.00,,,0.00,Wunderground v.1.15,2013-08-28 01:14:00,
2013-08-27 20:20:00,86.9,73.3,29.81,SW,224,1.0,8.0,64,0.00,,,0.00,Wunderground v.1.15,2013-08-28 01:20:00,
2013-08-27 20:26:00,86.6,73.0,29.81,SW,219,2.0,8.0,64,0.00,,,0.00,Wunderground v.1.15,2013-08-28 01:26:00,
2013-08-27 20:32:00,86.4,73.2,29.81,WSW,242,2.0,8.0,65,0.00,,,0.00,Wunderground v.1.15,2013-08-28 01:32:00,
2013-08-27 20:38:00,86.0,72.9,29.81,West,281,2.0,8.0,65,0.00,,,0.00,Wunderground v.1.15,2013-08-28 01:38:00,
2013-08-27 20:44:00,85.7,73.0,29.81,West,262,1.0,8.0,66,0.00,,,0.00,Wunderground v.1.15,2013-08-28 01:44:00,
2013-08-27 20:50:00,85.4,72.7,29.82,WSW,248,2.0,2.0,66,0.00,,,0.00,Wunderground v.1.15,2013-08-28 01:50:00,
2013-08-27 20:56:00,85.1,72.9,29.82,WSW,246,2.0,8.0,67,0.00,,,0.00,Wunderground v.1.15,2013-08-28 01:56:00,
2013-08-27 21:02:00,84.8,72.6,29.82,SW,224,1.0,2.0,67,0.00,,,0.00,Wunderground v.1.15,2013-08-28 02:02:00,
2013-08-27 21:08:00,84.6,72.9,29.83,WNW,295,2.0,8.0,68,0.00,,,0.00,Wunderground v.1.15,2013-08-28 02:08:00,
2013-08-27 21:14:00,84.4,72.7,29.83,SSW,196,3.0,8.0,68,0.00,,,0.00,Wunderground v.1.15,2013-08-28 02:14:00,
2013-08-27 21:20:00,84.4,72.2,29.83,WSW,253,3.0,8.0,67,0.00,,,0.00,Wunderground v.1.15,2013-08-28 02:20:00,
2013-08-27 21:26:00,84.4,72.2,29.83,WSW,257,2.0,8.0,67,0.00,,,0.00,Wunderground v.1.15,2013-08-28 02:26:00,
2013-08-27 21:32:00,84.3,72.6,29.83,SW,235,2.0,8.0,68,0.00,,,0.00,Wunderground v.1.15,2013-08-28 02:32:00,
2013-08-27 21:38:00,84.0,72.3,29.83,WSW,253,2.0,8.0,68,0.00,,,0.00,Wunderground v.1.15,2013-08-28 02:38:00,
2013-08-27 21:44:00,83.8,72.5,29.83,WSW,253,2.0,8.0,69,0.00,,,0.00,Wunderground v.1.15,2013-08-28 02:44:00,
2013-08-27 21:50:00,83.6,72.3,29.84,SW,227,2.0,8.0,69,0.00,,,0.00,Wunderground v.1.15,2013-08-28 02:50:00,
2013-08-27 21:56:00,83.4,72.2,29.84,WSW,245,2.0,8.0,69,0.00,,,0.00,Wunderground v.1.15,2013-08-28 02:56:00,
2013-08-27 22:02:00,83.2,72.4,29.84,WSW,246,2.0,8.0,70,0.00,,,0.00,Wunderground v.1.15,2013-08-28 03:02:00,
2013-08-27 22:08:00,83.1,72.3,29.84,SW,224,2.0,8.0,70,0.00,,,0.00,Wunderground v.1.15,2013-08-28 03:08:00,
2013-08-27 22:14:00,83.0,72.2,29.84,WNW,302,2.0,8.0,70,0.00,,,0.00,Wunderground v.1.15,2013-08-28 03:14:00,
2013-08-27 22:20:00,82.8,72.4,29.85,WNW,302,1.0,1.0,71,0.00,,,0.00,Wunderground v.1.15,2013-08-28 03:20:00,
2013-08-27 22:26:00,82.5,72.6,29.85,NW,321,0.0,8.0,72,0.00,,,0.00,Wunderground v.1.15,2013-08-28 03:26:00,
2013-08-27 22:32:00,82.2,72.7,29.86,NNE,16,1.0,8.0,73,0.00,,,0.00,Wunderground v.1.15,2013-08-28 03:32:00,
2013-08-27 22:38:00,81.9,72.4,29.85,West,266,0.0,8.0,73,0.00,,,0.00,Wunderground v.1.15,2013-08-28 03:38:00,
2013-08-27 22:44:00,81.8,72.7,29.86,WNW,286,0.0,8.0,74,0.00,,,0.00,Wunderground v.1.15,2013-08-28 03:44:00,
2013-08-27 22:50:00,81.8,72.7,29.85,West,263,0.0,8.0,74,0.00,,,0.00,Wunderground v.1.15,2013-08-28 03:50:00,
2013-08-27 22:56:00,81.7,72.6,29.86,WSW,253,0.0,8.0,74,0.00,,,0.00,Wunderground v.1.15,2013-08-28 03:56:00,
2013-08-27 23:02:00,81.6,72.9,29.85,West,267,0.0,8.0,75,0.00,,,0.00,Wunderground v.1.15,2013-08-28 04:02:00,
2013-08-27 23:04:00,81.6,72.9,29.85,WSW,248,0.0,8.0,75,0.00,,,0.00,Wunderground v.1.15,2013-08-28 04:04:00,
2013-08-27 23:06:00,81.6,72.9,29.85,WSW,249,0.0,8.0,75,0.00,,,0.00,Wunderground v.1.15,2013-08-28 04:06:00,
2013-08-27 23:08:00,81.5,72.8,29.85,WSW,248,0.0,8.0,75,0.00,,,0.00,Wunderground v.1.15,2013-08-28 04:08:00,
2013-08-27 23:12:00,81.5,72.8,29.85,WNW,295,0.0,8.0,75,0.00,,,0.00,Wunderground v.1.15,2013-08-28 04:12:00,
2013-08-27 23:18:00,81.5,72.8,29.85,West,274,0.0,8.0,75,0.00,,,0.00,Wunderground v.1.15,2013-08-28 04:18:00,
2013-08-27 23:24:00,81.5,72.8,29.85,WNW,284,0.0,8.0,75,0.00,,,0.00,Wunderground v.1.15,2013-08-28 04:24:00,
2013-08-27 23:30:00,81.5,73.2,29.86,West,278,0.0,8.0,76,0.00,,,0.00,Wunderground v.1.15,2013-08-28 04:30:00,
2013-08-27 23:36:00,81.4,73.1,29.85,WNW,297,0.0,8.0,76,0.00,,,0.00,Wunderground v.1.15,2013-08-28 04:36:00,
2013-08-27 23:42:00,81.4,73.1,29.86,WSW,256,0.0,8.0,76,0.00,,,0.00,Wunderground v.1.15,2013-08-28 04:42:00,
2013-08-27 23:48:00,81.4,73.1,29.86,WSW,255,0.0,8.0,76,0.00,,,0.00,Wunderground v.1.15,2013-08-28 04:48:00,
2013-08-27 23:54:00,81.3,73.0,29.86,West,263,0.0,8.0,76,0.00,,,0.00,Wunderground v.1.15,2013-08-28 04:54:00,